EW2561 Weather Reports


time (UTC)temp
F
wind
direction
speed
knots
gust
knots
rain 1hr
in
rain 24hr
in
rain mn
in
humidity
%
barometer
mb
20260904090241 73 312 3.5 10.4 0.00 0.00 0.00 81 1010.4
20260904085432 73 242 3.5 10.4 0.00 0.00 0.00 82 1010.3
20260904084932 73 334 3.5 9.6 0.00 0.00 0.00 82 1010.4
20260904084427 73 298 3.5 10.4 0.00 0.00 0.00 83 1010.4
20260904084206 73 284 3.5 10.4 0.00 0.00 0.00 83 1010.4
20260904083414 73 208 2.6 7.8 0.00 0.00 0.00 83 1010.4
20260904082908 73 302 2.6 10.4 0.00 0.00 0.00 83 1010.2
20260904082408 73 160 2.6 10.4 0.00 0.00 0.00 83 1010.3
20260904081907 72 157 2.6 8.7 0.00 0.00 0.00 83 1010.3
20260904081407 73 275 2.6 7.8 0.00 0.00 0.00 83 1010.3
20260904080906 73 219 3.5 7.8 0.00 0.00 0.00 83 1010.2
20260904080708 73 221 3.5 14.8 0.00 0.00 0.00 83 1010.3
20260904075905 73 167 2.6 14.8 0.00 0.00 0.00 84 1010.2
20260904075403 73 204 4.3 13.0 0.00 0.00 0.00 84 1010.2
20260904074903 72 292 4.3 11.3 0.00 0.00 0.00 84 1010.3
20260904074403 72 295 3.5 10.4 0.00 0.00 0.00 84 1010.2
20260904073903 71 271 3.5 8.7 0.00 0.00 0.00 85 1010.2
20260904073442 71 281 2.6 7.8 0.00 0.00 0.00 86 1010.4
20260904073431 71 330 2.6 7.8 0.00 0.00 0.00 85 1010.3
20260904072404 71 222 2.6 7.8 0.00 0.00 0.00 86 1010.5
20260904071903 71 290 2.6 7.8 0.00 0.00 0.00 86 1010.4
20260904071654 71 240 2.6 10.4 0.00 0.00 0.00 86 1010.6
20260904070904 71 201 2.6 10.4 0.00 0.00 0.00 86 1010.7
20260904070406 71 274 2.6 9.6 0.00 0.00 0.00 87 1010.6
20260904065902 71 297 3.5 9.6 0.00 0.00 0.00 87 1010.6
20260904065357 71 272 2.6 9.6 0.00 0.00 0.00 87 1010.7
20260904064850 70 294 2.6 8.7 0.00 0.00 0.00 88 1010.7
20260904064345 70 314 2.6 8.7 0.00 0.00 0.00 88 1010.8
20260904063844 70 254 1.7 7.8 0.00 0.00 0.00 88 1010.9
20260904063342 70 195 1.7 6.1 0.00 0.00 0.00 88 1010.8
20260904062841 70 259 2.6 6.1 0.00 0.00 0.00 88 1010.8
20260904062341 70 328 1.7 5.2 0.00 0.00 0.00 88 1010.9
20260904061841 70 39 1.7 5.2 0.00 0.00 0.00 88 1011.0
20260904061342 70 278 1.7 7.0 0.00 0.00 0.00 88 1011.0
20260904060841 70 11 1.7 7.0 0.00 0.00 0.00 88 1011.1
20260904060342 70 179 1.7 7.0 0.00 0.00 0.00 88 1011.1
20260904055841 70 318 1.7 7.0 0.00 0.00 0.00 88 1011.1
20260904055341 70 282 1.7 7.8 0.00 0.00 0.00 88 1011.2
20260904054841 69 269 2.6 7.8 0.00 0.00 0.00 88 1011.2
20260904054341 69 283 2.6 7.8 0.00 0.00 0.00 88 1011.2
20260904053841 69 320 1.7 7.8 0.00 0.00 0.00 88 1011.3
20260904053627 69 210 2.6 7.8 0.00 0.00 0.00 88 1011.3
20260904052859 69 214 2.6 7.8 0.00 0.00 0.00 88 1011.4
20260904052850 69 282 2.6 7.8 0.00 0.00 0.00 88 1011.4
20260904051858 69 241 3.5 10.4 0.00 0.00 0.00 88 1011.5
20260904051852 69 335 3.5 10.4 0.00 0.00 0.00 88 1011.5
20260904050840 69 308 2.6 8.7 0.00 0.00 0.00 88 1011.5
20260904050341 69 305 2.6 8.7 0.00 0.00 0.00 88 1011.6
20260904050133 69 287 2.6 8.7 0.00 0.00 0.00 89 1011.7
20260904045635 69 244 2.6 7.0 0.00 0.00 0.00 88 1011.7
20260904045130 69 102 2.6 7.0 0.00 0.00 0.00 89 1011.7
20260904044628 69 227 2.6 7.8 0.00 0.00 0.00 88 1011.7
20260904043838 69 113 2.6 10.4 0.00 0.00 0.00 88 1011.7
20260904043337 69 318 2.6 10.4 0.00 0.00 0.00 88 1011.7
20260904042837 69 288 3.5 13.0 0.00 0.00 0.00 88 1011.7
20260904042338 69 262 2.6 13.0 0.00 0.00 0.00 89 1011.7
20260904041837 69 46 2.6 6.1 0.00 0.00 0.00 89 1011.7
20260904041337 69 314 2.6 8.7 0.00 0.00 0.00 89 1011.6
20260904040837 69 272 2.6 8.7 0.00 0.00 0.00 89 1011.8
20260904040337 69 325 2.6 7.8 0.00 0.00 0.00 89 1011.9
20260904035835 69 345 1.7 7.0 0.00 0.00 0.00 89 1012.0
20260904035335 69 162 1.7 7.0 0.00 0.00 0.00 89 1011.9
20260904035123 69 328 2.6 7.0 0.00 0.00 0.00 89 1011.9
20260904034333 69 342 2.6 7.0 0.00 0.00 0.00 89 1012.0
20260904033831 69 339 1.7 7.0 0.00 0.00 0.00 89 1011.9
20260904033330 69 279 1.7 8.7 0.00 0.00 0.00 89 1012.0
20260904033123 69 293 1.7 8.7 0.00 0.00 0.00 89 1012.0
20260904032330 69 83 1.7 9.6 0.00 0.00 0.00 89 1012.0
20260904031831 69 326 1.7 9.6 0.00 0.00 0.00 88 1012.1
20260904031331 69 287 1.7 7.8 0.00 0.00 0.00 89 1012.2
20260904030831 69 314 2.6 7.8 0.00 0.00 0.00 88 1012.3
20260904030331 69 296 1.7 7.8 0.00 0.00 0.00 88 1012.4
20260904025830 69 112 1.7 7.0 0.00 0.00 0.00 88 1012.4
20260904025330 69 1 2.6 6.1 0.00 0.00 0.00 88 1012.5
20260904024829 69 347 2.6 8.7 0.00 0.00 0.00 88 1012.5
20260904024329 69 261 2.6 8.7 0.00 0.00 0.00 89 1012.7
20260904023835 69 304 1.7 7.0 0.00 0.00 0.00 89 1012.8
20260904023328 69 278 2.6 8.7 0.00 0.00 0.00 89 1012.8
20260904022821 69 293 2.6 8.7 0.00 0.00 0.00 89 1012.8
20260904022317 69 265 2.6 8.7 0.00 0.00 0.00 89 1012.9
20260904021817 69 201 1.7 6.1 0.00 0.00 0.00 89 1013.0
20260904021315 69 200 1.7 7.8 0.00 0.00 0.00 88 1013.1
20260904020815 70 216 2.6 7.8 0.00 0.00 0.00 88 1013.1
20260904020313 70 167 2.6 7.0 0.00 0.00 0.00 88 1013.2
20260904015814 70 304 1.7 7.0 0.00 0.00 0.00 88 1013.2
20260904015312 70 275 1.7 7.0 0.00 0.00 0.00 89 1013.2
20260904015054 70 359 1.7 8.7 0.00 0.00 0.00 89 1013.3
20260904014310 70 252 2.6 8.7 0.00 0.00 0.00 89 1013.4
20260904013809 69 186 1.7 7.0 0.00 0.00 0.00 89 1013.4
20260904013552 69 233 1.7 7.0 0.00 0.00 0.00 89 1013.3
20260904012809 69 287 1.7 7.8 0.00 0.00 0.00 89 1013.3
20260904012309 69 48 1.7 7.8 0.00 0.00 0.00 90 1013.3
20260904011809 69 197 1.7 5.2 0.00 0.00 0.00 90 1013.2
20260904011306 69 256 1.7 5.2 0.00 0.00 0.00 90 1013.3
20260904010807 69 200 1.7 5.2 0.00 0.00 0.00 90 1013.5
20260904010306 69 281 1.7 9.6 0.00 0.00 0.00 90 1013.6
20260904005803 69 325 1.7 9.6 0.00 0.00 0.00 90 1013.7
20260904005546 69 285 1.7 6.1 0.00 0.00 0.00 90 1013.7
20260904005049 69 214 1.7 6.1 0.00 0.00 0.00 90 1013.7
20260904004302 69 273 2.6 7.0 0.00 0.00 0.00 90 1013.7
20260904003802 69 333 2.6 7.0 0.00 0.00 0.00 90 1013.7
20260904003303 69 268 1.7 7.0 0.00 0.00 0.00 90 1013.8
20260904002802 69 284 1.7 4.3 0.00 0.00 0.00 90 1013.8
20260904002306 69 254 1.7 5.2 0.00 0.00 0.00 90 1014.0
20260904001802 69 269 1.7 6.1 0.00 0.00 0.00 90 1014.0
20260904001302 69 284 1.7 9.6 0.00 0.00 0.00 90 1014.0
20260904001050 69 170 1.7 9.6 0.00 0.00 0.00 90 1014.1
20260904000303 69 300 1.7 6.1 0.00 0.00 0.00 90 1014.1
20260903235802 69 284 2.6 8.7 0.00 0.00 0.00 91 1014.0
20260903235305 69 314 2.6 8.7 0.00 0.00 0.00 91 1014.1
20260903234802 69 229 1.7 5.2 0.00 0.00 0.00 91 1014.1
20260903234302 69 290 1.7 6.1 0.00 0.00 0.00 91 1014.2
20260903233802 69 203 1.7 6.1 0.00 0.00 0.00 92 1014.2
20260903233303 69 315 1.7 6.1 0.00 0.00 0.00 92 1014.3
20260903232802 69 263 1.7 6.1 0.00 0.00 0.00 92 1014.4
20260903232256 69 213 1.7 5.2 0.00 0.00 0.00 92 1014.5
20260903231750 69 256 1.7 8.7 0.00 0.00 0.00 92 1014.6
20260903231248 69 277 1.7 8.7 0.00 0.00 0.00 92 1014.5
20260903230749 69 257 1.7 6.1 0.00 0.00 0.00 92 1014.7
20260903230537 69 260 1.7 5.2 0.00 0.00 0.00 92 1014.7
20260903225748 69 290 1.7 6.1 0.00 0.00 0.00 92 1014.6
20260903225248 69 293 1.7 6.1 0.00 0.00 0.00 92 1014.7
20260903224748 69 276 1.7 4.3 0.00 0.00 0.00 92 1014.6
20260903224249 69 274 1.7 7.0 0.00 0.00 0.00 92 1014.7
20260903224038 69 187 2.6 7.0 0.00 0.00 0.00 91 1014.8
20260903223248 69 197 2.6 7.8 0.00 0.00 0.00 91 1014.8
20260903222748 69 282 1.7 7.8 0.00 0.00 0.00 90 1014.8
20260903222248 69 276 1.7 5.2 0.00 0.00 0.00 90 1014.8
20260903221747 69 290 1.7 5.2 0.00 0.00 0.00 90 1014.7
20260903221248 70 304 1.7 7.8 0.00 0.00 0.00 89 1014.7
20260903220742 70 220 1.7 7.8 0.00 0.00 0.00 89 1014.9
20260903220527 70 269 1.7 5.2 0.00 0.00 0.00 88 1015.1
20260903215738 70 242 1.7 5.2 0.00 0.00 0.00 88 1015.1
20260903215236 70 348 2.6 7.8 0.00 0.00 0.00 87 1015.2
20260903214734 71 46 2.6 7.8 0.00 0.00 0.00 87 1015.2
20260903214233 71 188 1.7 7.0 0.00 0.00 0.00 86 1015.3
20260903213733 71 276 2.6 6.1 0.00 0.00 0.00 86 1015.3
20260903213234 71 288 2.6 10.4 0.00 0.00 0.00 86 1015.3
20260903212733 71 291 2.6 10.4 0.00 0.00 0.00 86 1015.2
20260903212233 71 232 2.6 7.0 0.00 0.00 0.00 86 1015.2
20260903211733 71 225 1.7 7.8 0.00 0.00 0.00 87 1015.2
20260903211231 71 282 1.7 7.8 0.00 0.00 0.00 87 1015.2
20260903210731 71 287 2.6 6.1 0.00 0.00 0.00 87 1015.2
20260903210231 71 285 2.6 7.0 0.00 0.00 0.00 87 1015.3
20260903205731 70 4 2.6 7.0 0.00 0.00 0.00 87 1015.2
20260903205231 70 279 2.6 7.0 0.00 0.00 0.00 87 1015.3
20260903204730 70 158 2.6 8.7 0.00 0.00 0.00 88 1015.3
20260903204231 70 343 2.6 8.7 0.00 0.00 0.00 88 1015.3
20260903203731 70 323 1.7 7.8 0.00 0.00 0.00 89 1015.2
20260903203522 69 249 1.7 6.1 0.00 0.00 0.00 89 1015.2
20260903202731 69 285 1.7 4.3 0.00 0.00 0.00 89 1015.2
20260903202230 69 252 1.7 5.2 0.00 0.00 0.00 89 1015.2
20260903201731 69 271 1.7 5.2 0.00 0.00 0.00 90 1015.3
20260903201232 69 278 1.7 6.1 0.00 0.00 0.00 90 1015.3
20260903200731 69 323 1.7 6.1 0.00 0.00 0.00 90 1015.3
20260903200231 69 310 1.7 5.2 0.00 0.00 0.00 89 1015.3
20260903195731 69 222 1.7 5.2 0.00 0.00 0.00 89 1015.3
20260903195232 69 196 1.7 4.3 0.00 0.00 0.00 89 1015.3
20260903194731 69 273 0.9 4.3 0.00 0.00 0.00 89 1015.6
20260903194231 70 247 1.7 6.1 0.00 0.00 0.00 89 1015.5
20260903193731 70 280 1.7 6.1 0.00 0.00 0.00 88 1015.4
20260903193231 70 282 2.6 6.1 0.00 0.00 0.00 87 1015.5
20260903192731 70 176 2.6 5.2 0.00 0.00 0.00 86 1015.4
20260903192230 71 252 1.7 9.6 0.00 0.00 0.00 86 1015.5
20260903191731 71 134 1.7 9.6 0.00 0.00 0.00 85 1015.3
20260903191231 71 287 1.7 4.3 0.00 0.00 0.00 85 1015.4
20260903190731 71 245 1.7 4.3 0.00 0.00 0.00 85 1015.3
20260903190519 71 139 1.7 5.2 0.00 0.00 0.00 85 1015.3
20260903185731 71 290 1.7 5.2 0.00 0.00 0.00 84 1015.4
20260903185231 71 302 1.7 5.2 0.00 0.00 0.00 84 1015.5
20260903184731 71 161 0.9 4.3 0.00 0.00 0.00 84 1015.5
20260903184233 71 228 0.9 7.8 0.00 0.00 0.00 84 1015.4
20260903183732 71 286 1.7 7.8 0.00 0.00 0.00 84 1015.4
20260903183231 71 162 1.7 5.2 0.00 0.00 0.00 84 1015.5
20260903182730 71 281 1.7 5.2 0.00 0.00 0.00 84 1015.5
20260903182500 71 294 1.7 4.3 0.00 0.00 0.00 83 1015.5
20260903181730 71 287 0.9 5.2 0.00 0.00 0.00 83 1015.5
20260903181501 72 163 1.7 5.2 0.00 0.00 0.00 83 1015.4
20260903180728 72 200 1.7 6.1 0.00 0.00 0.00 83 1015.3
20260903180222 72 265 1.7 6.1 0.00 0.00 0.00 83 1015.3
20260903175723 72 323 1.7 5.2 0.00 0.00 0.00 82 1015.2
20260903175454 72 221 1.7 7.0 0.00 0.00 0.00 82 1015.2
20260903174720 72 284 1.7 7.0 0.00 0.00 0.00 82 1015.4
20260903174448 72 309 1.7 6.1 0.00 0.00 0.00 82 1015.4
20260903173718 72 170 1.7 6.1 0.00 0.00 0.00 81 1015.6
20260903173217 72 297 1.7 5.2 0.00 0.00 0.00 81 1015.5
20260903172717 72 304 1.7 7.8 0.00 0.00 0.00 81 1015.4
20260903172216 73 255 1.7 7.8 0.00 0.00 0.00 81 1015.5
20260903171714 73 302 1.7 5.2 0.00 0.00 0.00 81 1015.6
20260903171444 73 331 1.7 5.2 0.00 0.00 0.00 81 1015.6
20260903170712 73 278 1.7 5.2 0.00 0.00 0.00 81 1015.6
20260903170211 73 139 1.7 4.3 0.00 0.00 0.00 80 1015.4
20260903165707 73 279 1.7 7.8 0.00 0.00 0.00 80 1015.3
20260903165205 73 285 2.6 8.7 0.00 0.00 0.00 79 1015.3
20260903164938 73 252 2.6 8.7 0.00 0.00 0.00 80 1015.2
20260903164203 73 313 2.6 8.7 0.00 0.00 0.00 79 1015.2
20260903163703 73 240 2.6 7.0 0.00 0.00 0.00 80 1015.3
20260903163435 73 180 2.6 7.0 0.00 0.00 0.00 79 1015.4
20260903162709 74 190 2.6 6.1 0.00 0.00 0.00 79 1015.3
20260903162205 74 301 2.6 7.0 0.00 0.00 0.00 79 1015.4
20260903161700 73 205 2.6 7.0 0.00 0.00 0.00 80 1015.3
20260903161148 73 124 2.6 6.1 0.00 0.00 0.00 80 1015.3
20260903160642 73 179 2.6 6.1 0.00 0.00 0.00 80 1015.3
20260903160140 73 34 2.6 8.7 0.00 0.00 0.00 80 1015.4
20260903155638 73 319 2.6 8.7 0.00 0.00 0.00 79 1015.4
20260903155139 73 304 2.6 7.8 0.00 0.00 0.00 79 1015.3
20260903154644 73 173 1.7 7.8 0.00 0.00 0.00 79 1015.5
20260903154411 73 249 2.6 10.4 0.00 0.00 0.00 79 1015.5
20260903153643 73 220 3.5 10.4 0.00 0.00 0.00 78 1015.6
20260903153139 73 305 3.5 8.7 0.00 0.00 0.00 79 1015.6
20260903152638 73 294 2.6 8.7 0.00 0.00 0.00 79 1015.6
20260903152135 73 308 2.6 7.8 0.00 0.00 0.00 79 1015.6
20260903151634 73 151 2.6 7.0 0.00 0.00 0.00 79 1015.6
20260903151400 73 275 2.6 7.0 0.00 0.00 0.00 78 1015.6
20260903150859 74 171 2.6 10.4 0.00 0.00 0.00 78 1015.6
20260903150135 74 156 2.6 10.4 0.00 0.00 0.00 77 1015.5
20260903145634 74 277 1.7 7.8 0.00 0.00 0.00 77 1015.6
20260903145134 74 299 2.6 8.7 0.00 0.00 0.00 77 1015.6
20260903144635 74 295 2.6 8.7 0.00 0.00 0.00 78 1015.6
20260903144131 74 278 3.5 8.7 0.00 0.00 0.00 78 1015.6
20260903143630 73 282 3.5 8.7 0.00 0.00 0.00 79 1015.7
20260903143353 73 176 2.6 7.0 0.00 0.00 0.00 81 1015.6
20260903142624 73 273 2.6 6.1 0.00 0.00 0.00 81 1015.6
20260903142124 72 272 2.6 7.8 0.00 0.00 0.00 81 1015.7
20260903141624 72 302 2.6 7.8 0.00 0.00 0.00 81 1015.8
20260903141125 73 333 2.6 7.0 0.00 0.00 0.00 80 1015.8
20260903140624 73 285 2.6 9.6 0.00 0.00 0.00 80 1015.8
20260903140124 72 323 3.5 9.6 0.00 0.00 0.00 81 1015.8
20260903135626 72 264 3.5 8.7 0.00 0.00 0.00 81 1015.8
20260903135124 72 302 2.6 7.8 0.00 0.00 0.00 80 1015.9
20260903134623 72 226 2.6 7.0 0.00 0.00 0.00 80 1015.8
20260903134124 72 338 3.5 9.6 0.00 0.00 0.00 80 1015.9
20260903133854 72 148 3.5 9.6 0.00 0.00 0.00 80 1015.8
20260903133122 72 152 3.5 10.4 0.00 0.00 0.00 80 1015.8
20260903132852 72 348 3.5 10.4 0.00 0.00 0.00 81 1015.9
20260903132122 71 250 2.6 7.0 0.00 0.00 0.00 82 1015.7
20260903131623 71 302 2.6 7.0 0.00 0.00 0.00 83 1015.6
20260903131122 70 292 2.6 9.6 0.00 0.00 0.00 83 1015.6
20260903130620 70 248 2.6 9.6 0.00 0.00 0.00 83 1015.8
20260903130120 70 312 3.5 10.4 0.00 0.00 0.00 83 1015.8
20260903125620 70 223 3.5 10.4 0.00 0.00 0.00 82 1015.9
20260903125120 71 282 3.5 9.6 0.00 0.00 0.00 82 1015.9
20260903124853 71 263 2.6 7.8 0.00 0.00 0.00 81 1015.8
20260903124120 71 269 2.6 11.3 0.00 0.00 0.00 82 1015.6
20260903123620 71 300 3.5 11.3 0.00 0.00 0.00 82 1015.6
20260903123120 71 290 3.5 9.6 0.00 0.00 0.00 81 1015.6
20260903122620 71 236 3.5 8.7 0.00 0.00 0.00 82 1015.6
20260903122120 71 287 2.6 11.3 0.00 0.00 0.00 81 1015.7
20260903121614 71 301 2.6 11.3 0.00 0.00 0.00 81 1015.7
20260903121114 71 157 2.6 7.8 0.00 0.00 0.00 81 1015.6
20260903120630 70 187 3.5 11.3 0.00 0.00 0.00 83 1015.7
20260903120624 71 164 2.6 11.3 0.00 0.00 0.00 82 1015.6
20260903115614 70 193 2.6 8.7 0.00 0.00 0.00 83 1015.8
20260903115114 70 69 2.6 8.7 0.00 0.00 0.00 84 1015.9
20260903114614 69 264 2.6 8.7 0.00 0.00 0.00 84 1015.9
20260903114113 69 307 2.6 7.0 0.00 0.00 0.00 84 1015.9
20260903113614 69 326 2.6 8.7 0.00 0.00 0.00 84 1015.8
20260903113108 69 251 3.5 8.7 0.00 0.00 0.00 84 1015.7
20260903112608 69 262 2.6 8.7 0.00 0.00 0.00 84 1015.7
20260903112335 69 307 3.5 12.2 0.00 0.00 0.00 85 1015.6
20260903111835 69 292 3.5 12.2 0.00 0.00 0.00 84 1015.5
20260903111331 69 280 2.6 9.6 0.00 0.00 0.00 85 1015.6
20260903110617 68 346 3.5 9.6 0.00 0.00 0.00 85 1015.6
20260903110108 68 323 2.6 11.3 0.00 0.00 0.00 85 1015.6
20260903105608 68 318 3.5 11.3 0.00 0.00 0.00 85 1015.7
20260903105108 68 258 3.5 9.6 0.00 0.00 0.00 85 1015.6
20260903104605 68 251 2.6 7.8 0.00 0.00 0.00 85 1015.6
20260903104104 68 240 2.6 7.8 0.00 0.00 0.00 86 1015.6
20260903103847 68 221 2.6 7.0 0.00 0.00 0.00 85 1015.6
20260903103840 68 193 2.6 6.1 0.00 0.00 0.00 85 1015.5
20260903102602 68 306 2.6 9.6 0.00 0.00 0.00 85 1015.5
20260903102101 68 214 2.6 9.6 0.00 0.00 0.00 86 1015.5
20260903101826 67 83 2.6 8.7 0.00 0.00 0.00 86 1015.5
20260903101102 67 46 2.6 8.7 0.00 0.00 0.00 86 1015.5
20260903100604 67 293 1.7 5.2 0.00 0.00 0.00 87 1015.4
20260903100103 67 274 1.7 6.1 0.00 0.00 0.00 87 1015.5
20260903095603 67 354 1.7 6.1 0.00 0.00 0.00 88 1015.3
20260903095102 66 282 1.7 6.1 0.00 0.00 0.00 88 1015.3
20260903094602 66 280 1.7 4.3 0.00 0.00 0.00 88 1015.2
20260903094103 66 218 2.6 5.2 0.00 0.00 0.00 89 1015.4
20260903093602 66 295 2.6 6.1 0.00 0.00 0.00 89 1015.2
20260903093327 66 184 2.6 7.8 0.00 0.00 0.00 90 1015.2
20260903092602 66 33 2.6 7.8 0.00 0.00 0.00 90 1015.2
20260903092102 66 325 2.6 7.0 0.00 0.00 0.00 90 1015.2
20260903091603 66 291 2.6 7.8 0.00 0.00 0.00 89 1015.2
20260903091102 66 271 1.7 7.8 0.00 0.00 0.00 89 1015.2
20260903090829 66 198 2.6 12.2 0.00 0.00 0.00 88 1015.3
20260903090327 66 152 3.5 12.2 0.00 0.00 0.00 86 1015.4